Charlotte, NC

12:03 AM EDT on June 24, 2018 (GMT -0400)
Charlotte-Douglas International

Weather History for KCLT - February, 2015

Change the Weather History Date:

Sunday, February 8, 2015

  Actual Average Record
Temperature  
Mean Temperature 59 °F 42 °F  
Max Temperature 70 °F 54 °F 74 °F (2009)
Min Temperature 47 °F 31 °F 1 °F (1895)
Degree Days  
Heating Degree Days 6 23  
Month to date heating degree days 178 185  
Since 1 July heating degree days 2185 2292  
Cooling Degree Days 0 0  
Month to date cooling degree days 0 0  
Year to date cooling degree days 0 0  
Growing Degree Days 8 (Base 50)    
Moisture  
Dew Point 24 °F    
Average Humidity 27    
Maximum Humidity 36    
Minimum Humidity 18    
Precipitation  
Precipitation 0.00 in 0.10 in 1.12 in (1896)
Month to date precipitation 0.40 0.87  
Year to date precipitation 3.20 4.28  
Snow  
Snow 0.00 in 0.10 in 0.20 in (1964)
Month to date snowfall 0.0 0.4  
Since 1 July snowfall T 2.9  
Snow Depth 0.00 in    
Sea Level Pressure  
Sea Level Pressure 29.97 in    
Wind  
Wind Speed 14 mph (SW)    
Max Wind Speed 25 mph    
Max Gust Speed 31 mph    
Visibility 10 miles    
Events      
T = Trace of Precipitation, MM = Missing Value Source: NWS Daily Summary

Daily Weather History Graph

Daily Weather History Graph

Search for Another Location

Airport or City:

Astronomy

Feb. 08, 2015 Rise Set
Actual Time 7:17 AM EST 5:59 PM EST
Civil Twilight 6:50 AM EST 6:25 PM EST
Nautical Twilight 6:20 AM EST 6:55 PM EST
Astronomical Twilight 5:51 AM EST 7:25 PM EST
Moon 10:24 PM EST (2/8) 9:33 AM EST (2/8)
Length of Visible Light 11h 34m
Length of Day
10h 41m
Waning Gibbous, 81% of the Moon is Illuminated
Feb 8
Waning Gibbous
Feb 11
Last Quarter
Feb 18
New
Feb 25
First Quarter
Mar 5
Full

Hourly Weather History & Observations

Time (EST) Temp. Dew Point Humidity Pressure Visibility Wind Dir Wind Speed Gust Speed Precip Events Conditions
12:52 AM 50.0 °F 18.0 °F 28% 30.07 in 10.0 mi SW 11.5 mph 18.4 mph N/A   Clear
1:52 AM 50.0 °F 18.0 °F 28% 30.06 in 10.0 mi SW 11.5 mph - N/A   Clear
2:52 AM 50.0 °F 18.0 °F 28% 30.05 in 10.0 mi SW 13.8 mph 23.0 mph N/A   Clear
3:52 AM 48.2 °F 19.4 °F 32% 30.04 in 10.0 mi SSW 12.7 mph 19.6 mph N/A   Clear
4:52 AM 48.9 °F 19.0 °F 31% 30.03 in 10.0 mi SW 12.7 mph - N/A   Clear
5:52 AM 48.0 °F 19.0 °F 32% 30.03 in 10.0 mi SW 12.7 mph - N/A   Clear
6:52 AM 48.0 °F 19.9 °F 33% 30.04 in 10.0 mi SW 13.8 mph 20.7 mph N/A   Clear
7:52 AM 48.9 °F 23.0 °F 36% 30.05 in 10.0 mi SW 16.1 mph 20.7 mph N/A   Partly Cloudy
8:52 AM 54.0 °F 26.1 °F 34% 30.05 in 10.0 mi SW 13.8 mph 20.7 mph N/A   Partly Cloudy
9:52 AM 59.0 °F 24.8 °F 27% 30.04 in 10.0 mi SW 15.0 mph 25.3 mph N/A   Partly Cloudy
10:52 AM 63.0 °F 26.1 °F 25% 30.02 in 10.0 mi SW 13.8 mph 21.9 mph N/A   Partly Cloudy
11:52 AM 64.9 °F 30.0 °F 27% 29.99 in 10.0 mi SW 19.6 mph 27.6 mph N/A   Partly Cloudy
12:52 PM 68.0 °F 26.1 °F 21% 29.95 in 10.0 mi SSW 19.6 mph 29.9 mph N/A   Partly Cloudy
1:52 PM 70.0 °F 25.0 °F 18% 29.92 in 10.0 mi SW 19.6 mph 28.8 mph N/A   Partly Cloudy
2:52 PM 70.0 °F 25.0 °F 18% 29.90 in 10.0 mi SSW 19.6 mph 24.2 mph N/A   Partly Cloudy
3:52 PM 69.1 °F 27.0 °F 21% 29.88 in 10.0 mi SSW 19.6 mph 25.3 mph N/A   Partly Cloudy
4:52 PM 66.9 °F 27.0 °F 22% 29.88 in 10.0 mi SSW 18.4 mph 28.8 mph N/A   Clear
5:52 PM 63.0 °F 26.1 °F 25% 29.88 in 10.0 mi SSW 12.7 mph - N/A   Partly Cloudy
6:52 PM 59.0 °F 26.1 °F 28% 29.89 in 10.0 mi South 10.4 mph - N/A   Partly Cloudy
7:52 PM 57.9 °F 27.0 °F 31% 29.90 in 10.0 mi SSW 9.2 mph - N/A   Partly Cloudy
8:52 PM 57.0 °F 24.1 °F 28% 29.89 in 10.0 mi SSW 11.5 mph - N/A   Partly Cloudy
9:52 PM 55.9 °F 23.0 °F 28% 29.90 in 10.0 mi SSW 5.8 mph - N/A   Scattered Clouds
10:52 PM 57.0 °F 24.1 °F 28% 29.89 in 10.0 mi SW 12.7 mph 19.6 mph N/A   Mostly Cloudy
11:52 PM 57.0 °F 28.0 °F 33% 29.88 in 10.0 mi SW 9.2 mph - N/A   Overcast